Weather History for Tupelo, MS

Change the Weather History Date:

Saturday, July 13, 2013

  Actual Average Record
Temperature  
Mean Temperature 76 °F 82 °F  
Max Temperature 89 °F 92 °F 105 °F (1936)
Min Temperature 62 °F 71 °F 58 °F (1975)
Degree Days  
Heating Degree Days 0 0  
Month to date heating degree days 0 0  
Since 1 June heating degree days 0 0  
Since 1 July heating degree days 0 0  
Cooling Degree Days 11 17  
Month to date cooling degree days 186 210  
Year to date cooling degree days 848 882  
Since 1 June cooling degree days 602 605  
Growing Degree Days 26 (Base 50)    
Moisture  
Dew Point 62 °F    
Average Humidity 64    
Maximum Humidity 90    
Minimum Humidity 38    
Precipitation  
Precipitation 0.00 in 0.13 in 1.30 in (1969)
Month to date precipitation 0.29 1.75  
Year to date precipitation 30.76 30.87  
Snow  
Snow 0.00 in 0.00 in - ()
Month to date snowfall 0.0 0.0  
Since 1 June snowfall 0.0 0.0  
Since 1 July snowfall 0.0 0.0  
Snow Depth 0.00 in    
Sea Level Pressure  
Sea Level Pressure 29.97 in    
Wind  
Wind Speed 6 mph (NE)    
Max Wind Speed 15 mph    
Max Gust Speed 20 mph    
Visibility 10 miles    
Events Thunderstorm    
T = Trace of Precipitation, MM = Missing Value Source: NWS Daily Summary

Daily Weather History Graph

Daily Weather History Graph

Search for Another Location

Airport:

Trip Planner

Search our weather history database for the weather conditions in past years. The results will help you decide how hot, cold, wet, or windy it might be!

Date:

Astronomy

Jul. 13, 2013 Rise Set
Actual Time 5:53 AM CDT 8:08 PM CDT
Civil Twilight 5:24 AM CDT 8:36 PM CDT
Nautical Twilight 4:49 AM CDT 9:12 PM CDT
Astronomical Twilight 4:11 AM CDT 9:50 PM CDT
Moon 10:53 AM CDT (7/13) 11:06 PM CDT (7/13)
Length of Visible Light 15h 12m
Length of Day
14h 15m
Waxing Crescent, 26% of the Moon is Illuminated
Jul 13
Waxing Crescent
Jul 15
First Quarter
Jul 22
Full
Jul 29
Last Quarter
Aug 6
New

Hourly Weather History & Observations

Time (CDT) Temp. Heat Index Dew Point Humidity Pressure Visibility Wind Dir Wind Speed Gust Speed Precip Events Conditions
12:53 AM 68.0 °F - 62.1 °F 81% 29.97 in 10.0 mi NNE 6.9 mph - N/A   Clear
1:53 AM 66.0 °F - 61.0 °F 84% 29.96 in 10.0 mi NE 4.6 mph - N/A   Clear
2:53 AM 64.9 °F - 60.1 °F 84% 29.96 in 10.0 mi NE 5.8 mph - N/A   Clear
3:53 AM 64.0 °F - 60.1 °F 87% 29.96 in 10.0 mi NNE 6.9 mph - N/A   Clear
4:53 AM 63.0 °F - 59.0 °F 87% 29.97 in 10.0 mi NNE 6.9 mph - N/A   Clear
5:53 AM 63.0 °F - 59.0 °F 87% 29.98 in 10.0 mi NNE 5.8 mph - N/A   Clear
6:53 AM 64.9 °F - 61.0 °F 87% 29.98 in 10.0 mi NNE 4.6 mph - N/A   Clear
7:53 AM 70.0 °F - 61.0 °F 73% 29.99 in 10.0 mi NE 8.1 mph - N/A   Clear
8:53 AM 75.0 °F - 60.1 °F 60% 29.99 in 10.0 mi East 5.8 mph - N/A   Clear
9:53 AM 79.0 °F - 60.1 °F 52% 29.99 in 10.0 mi East 4.6 mph - N/A   Clear
10:53 AM 82.0 °F 82.4 °F 60.1 °F 47% 29.99 in 10.0 mi East 9.2 mph - N/A   Clear
11:53 AM 84.0 °F 84.4 °F 61.0 °F 46% 30.00 in 10.0 mi East 8.1 mph - N/A   Clear
12:53 PM 84.9 °F 84.8 °F 60.1 °F 43% 29.99 in 10.0 mi ENE 8.1 mph - N/A   Clear
1:53 PM 86.0 °F 86.1 °F 61.0 °F 43% 29.96 in 10.0 mi Variable 3.5 mph - N/A   Clear
2:53 PM 87.1 °F 86.7 °F 60.1 °F 40% 29.95 in 10.0 mi ENE 6.9 mph - N/A   Scattered Clouds
3:53 PM 87.1 °F 86.7 °F 60.1 °F 40% 29.94 in 10.0 mi Calm Calm - N/A   Clear
4:53 PM 87.1 °F 87.0 °F 61.0 °F 41% 29.93 in 10.0 mi East 8.1 mph - N/A   Partly Cloudy
5:53 PM 89.1 °F 89.0 °F 61.0 °F 39% 29.92 in 10.0 mi Calm Calm - N/A   Partly Cloudy
6:53 PM 84.0 °F 84.9 °F 63.0 °F 49% 29.94 in 10.0 mi North 8.1 mph - N/A   Partly Cloudy
7:53 PM 80.1 °F 81.5 °F 63.0 °F 56% 29.96 in 10.0 mi NNE 6.9 mph - N/A   Clear
8:45 PM 77.0 °F - 64.4 °F 65% 29.96 in 10.0 mi NNE 5.8 mph - N/A Thunderstorm Thunderstorm
8:53 PM 77.0 °F - 64.0 °F 64% 29.96 in 10.0 mi NNE 4.6 mph - N/A   Partly Cloudy
9:25 PM 75.2 °F - 64.4 °F 69% 29.98 in 10.0 mi NNE 8.1 mph - N/A Thunderstorm Clear
9:39 PM 75.2 °F - 64.4 °F 69% 29.98 in 10.0 mi NE 5.8 mph - N/A   Partly Cloudy
9:53 PM 75.9 °F - 64.9 °F 69% 29.98 in 10.0 mi NE 5.8 mph - N/A   Partly Cloudy
10:53 PM 77.0 °F - 64.0 °F 64% 29.99 in 10.0 mi ESE 4.6 mph - N/A   Scattered Clouds
11:53 PM 75.0 °F - 66.0 °F 73% 29.98 in 10.0 mi SSW 4.6 mph - N/A   Clear